Location: Newark
(34.6283°N, 36.0776°E)
Time: 21:05:33
(UTC+00:00)

A-11 Canister half - Pass Details

Date: 26 September 2019
Orbit: 1527 x 1682 km, 47.3° (Epoch: 17 October)

Event Time Altitude Azimuth Distance (km) Brightness Sun altitude
Rises 04:22:23 0° 299° (WNW) 4,732 11.0 10.7°
Reaches altitude 10° 04:25:38 10° 306° (NW) 3,766 10.6 11.3°
Maximum altitude 04:34:47 47° 18° (NNE) 2,041 9.9 13.2°
Drops below altitude 10° 04:44:12 10° 90° (E) 3,880 13.3 15.1°
Sets 04:47:35 0° 96° (E) 4,884 13.5 15.7°
